Location: Poughquag
(41.6090°N, 73.6820°W)
Time: 03:50:05
(UTC-05:00)

RS-15 - Visible Passes

Search period start: 28 November 2023 00:00
Search period end: 08 December 2023 00:00
Orbit: 1890 x 2154 km, 64.8° (Epoch: 27 November)

Date Brightness Start Highest point End Pass type
(mag) Time Alt. Az. Time Alt. Az. Time Alt. Az.
28 Nov 9.5 01:40:34 22° N 01:40:34 22° N 01:46:51 10° NE visible
28 Nov 9.2 03:48:20 16° NNW 03:55:58 30° NNE 04:05:21 10° E visible
28 Nov 8.1 05:59:03 10° NNW 06:10:32 79° NE 06:21:29 10° SE visible
28 Nov 9.7 20:21:09 10° S 20:22:29 14° S 20:22:29 14° S visible
28 Nov10.222:58:09NNE22:58:09NNE22:30:18SWvisible
29 Nov 9.6 01:05:55 19° NNE 01:05:55 19° NNE 01:10:08 10° NE visible
29 Nov 9.3 03:13:41 19° NNW 03:19:02 26° NNE 03:27:59 10° ENE visible
29 Nov 8.3 05:22:58 10° NNW 05:34:21 64° NE 05:45:12 10° SE visible
29 Nov 9.5 19:46:08 10° S 19:48:38 18° SSE 19:48:38 18° SSE visible
29 Nov10.122:23:31NE22:23:31NE21:56:28SWvisible
30 Nov 9.8 00:31:17 16° NNE 00:31:17 16° NNE 00:33:37 10° NNE visible
30 Nov 9.4 02:39:02 22° N 02:41:59 24° NNE 02:50:35 10° ENE visible
30 Nov 8.6 04:46:52 10° NNW 04:58:01 52° NE 05:08:38 10° ESE visible
30 Nov 9.3 19:11:35 10° SSE 19:14:50 19° SE 19:14:50 19° SE visible
30 Nov 9.6 21:20:23 10° SW 21:22:40 18° SW 21:22:40 18° SW visible
30 Nov 10.0 23:56:40 12° NNE 23:56:40 12° NNE 23:57:15 10° NNE visible
01 Dec 9.4 02:04:26 22° N 02:04:52 22° N 02:13:14 10° NE visible
01 Dec 8.8 04:12:12 14° NNW 04:21:32 43° NE 04:31:50 10° ESE visible
01 Dec 8.1 06:23:27 10° NW 06:34:34 65° WSW 06:45:15 10° SSE visible
01 Dec 9.3 18:37:39 10° SE 18:41:03 17° SE 18:41:03 17° SE visible
01 Dec 9.2 20:44:19 10° SSW 20:48:54 28° SSW 20:48:54 28° SSW visible
01 Dec10.223:22:06NNE23:22:06NNE22:56:45WSWvisible
02 Dec 9.5 01:29:52 21° NNE 01:29:52 21° NNE 01:36:01 10° NE visible
02 Dec 9.0 03:37:38 19° NNW 03:44:55 36° NE 03:54:48 10° E visible
02 Dec 8.0 05:47:16 10° NW 05:58:39 82° WSW 06:09:34 10° SSE visible
02 Dec 9.4 18:04:50 10° SE 18:07:19 13° ESE 18:07:19 13° ESE visible
02 Dec 8.7 20:08:34 10° SSW 20:15:10 38° S 20:15:10 38° S visible
02 Dec 10.0 22:22:26 10° WSW 22:47:34 - NE 22:23:01 12° WSW visible
03 Dec 9.7 00:55:20 18° NNE 00:55:20 18° NNE 00:59:02 10° NE visible
03 Dec 9.1 03:03:06 23° N 03:08:09 30° NNE 03:17:36 10° E visible
03 Dec 8.0 05:11:09 10° NNW 05:22:37 81° ENE 05:33:34 10° SE visible
03 Dec 8.5 19:33:08 10° S 19:41:26 44° SSE 19:41:26 44° SSE visible
03 Dec 9.5 21:45:31 10° WSW 21:49:18 23° WSW 21:49:18 23° WSW visible
04 Dec 9.9 00:20:51 13° NNE 00:20:51 13° NNE 00:22:17 10° NE visible
04 Dec 9.3 02:28:38 25° N 02:31:15 27° NNE 02:40:15 10° ENE visible
04 Dec 8.2 04:36:25 15° NNW 04:46:26 66° NE 04:57:18 10° SE visible
04 Dec 8.4 18:58:03 10° S 19:07:44 40° ESE 19:07:44 40° ESE visible
04 Dec 8.9 21:08:52 10° SW 21:15:35 38° WSW 21:15:35 38° WSW visible
04 Dec10.123:46:25NE23:46:25NE23:23:26Wvisible
05 Dec 9.4 01:54:12 24° NNE 01:54:13 24° NNE 02:02:50 10° ENE visible
05 Dec 8.4 04:01:59 20° NNW 04:10:08 53° NE 04:20:47 10° ESE visible
05 Dec 8.2 06:11:51 10° NW 06:22:23 48° WSW 06:32:34 10° S visible
05 Dec 8.6 18:23:25 10° SSE 18:33:25 31° ESE 18:34:00 31° E visible
05 Dec 8.3 20:32:30 10° SW 20:41:51 59° SW 20:41:51 59° SW visible
05 Dec 10.0 22:49:12 10° W 23:12:03 - NE 22:49:42 11° W visible
06 Dec 9.5 01:19:50 21° NNE 01:19:50 21° NNE 01:25:28 10° NE visible
06 Dec 8.7 03:27:37 26° NNW 03:33:41 44° NE 03:44:01 10° ESE visible
06 Dec 8.0 05:35:33 10° NW 05:46:36 63° WSW 05:57:15 10° SSE visible
06 Dec 8.9 17:49:23 10° SE 17:57:53 23° E 18:00:16 21° E visible
06 Dec 7.9 19:56:24 10° SSW 20:08:07 83° S 20:08:07 83° S visible
06 Dec 9.6 22:11:50 10° W 22:15:57 22° W 22:15:57 22° W visible
07 Dec 9.8 00:45:32 16° NE 00:45:32 16° NE 00:48:15 10° NE visible
07 Dec 8.9 02:53:19 30° N 02:57:05 37° NE 03:07:02 10° E visible
07 Dec 7.9 05:01:08 16° NW 05:10:43 79° WSW 05:21:35 10° SSE visible
07 Dec 9.2 17:16:20 10° SE 17:22:29 16° E 17:26:30 13° ENE visible
07 Dec 7.9 19:20:36 10° SSW 19:32:42 70° ESE 19:34:20 64° ENE visible
07 Dec 9.1 21:34:40 10° WSW 21:42:10 35° WNW 21:42:10 35° WNW visible
